GFSSGP_prec_cloud_057.txt.gz
Cloud_Cover
5 14 8 100 56 14 4 0 0 2 0 3 0 5 37 33 95 59 13 52 5 4 0 0 0 0 4 0 0 0 0 0 0 0 0 100 74 89 55 92 100 100 96 99 100 100 100 100 100
5 91 91 15 40 0 2 0 0 1 0 0 0 0 0 0 9 2 8 1 0 0 0 0 0 0 0 0 0 0 5 0 0 0 2 23 100 73 100 100 100 100 89 84 91 92 100 83 100
73 100 100 80 39 0 0 0 0 0 0 0 0 0 0 1 89 34 0 0 0 0 0 0 0 0 0 0 0 5 3 4 0 0 0 18 100 100 81 100 100 100 100 100 100 98 100 100 100
100 100 100 50 1 0 0 0 0 0 0 0 0 10 38 51 0 7 12 0 0 0 0 0 0 0 0 0 1 4 5 0 0 0 0 5 100 100 59 100 94 100 100 96 16 8 7 54 76
100 100 100 100 97 38 2 0 0 0 0 0 0 44 91 42 0 100 80 0 12 0 8 0 0 0 0 0 1 13 0 0 0 0 0 16 97 100 100 100 100 100 100 42 5 5 99 6 57
100 100 100 100 54 30 4 0 0 0 0 0 0 0 2 0 31 31 7 1 4 0 0 0 0 0 0 0 59 5 1 0 0 0 4 2 84 76 100 100 100 70 60 46 6 5 7 71 90
16 100 100 61 100 51 0 3 0 0 0 0 0 0 0 0 33 28 4 26 0 0 0 0 0 0 3 1 53 3 0 0 0 0 0 8 5 38 28 99 100 100 50 5 31 19 5 10 40
94 96 90 92 100 50 59 36 0 0 0 0 0 0 0 0 1 40 37 15 0 0 0 0 0 0 0 0 2 1 0 0 0 0 0 0 4 0 5 82 92 64 39 74 70 15 48 5 86
6 95 91 87 87 53 5 72 4 1 1 0 0 0 0 0 0 0 93 1 0 0 16 0 0 0 1 0 5 1 5 5 0 0 0 0 3 0 0 3 90 12 5 6 54 48 30 46 7
91 100 96 95 40 92 95 92 100 21 0 0 0 0 0 0 0 0 0 0 0 0 0 0 0 0 2 5 19 14 5 13 12 1 0 0 3 0 5 26 5 6 30 100 97 100 100 100 98
70 70 85 8 25 99 88 94 100 100 6 96 11 10 0 0 0 0 0 0 0 0 6 0 2 5 1 4 100 42 7 100 98 55 100 98 10 9 10 2 62 72 100 98 44 39 42 100 97
5 19 81 1 1 68 89 1 100 93 100 16 100 100 66 0 0 0 0 0 0 0 0 0 2 48 71 59 100 99 98 100 100 100 86 100 97 30 3 8 60 43 8 93 99 100 100 100 96
36 11 78 98 5 66 26 28 100 100 100 28 100 86 33 92 0 0 0 0 0 0 0 0 1 10 97 100 98 96 100 100 100 100 100 100 100 76 31 21 71 100 100 100 100 100 100 100 87
26 98 99 79 0 5 0 32 99 100 100 83 100 60 8 7 0 0 0 0 0 0 0 0 23 59 24 100 100 100 100 100 100 100 100 100 100 30 99 66 91 100 100 100 100 100 100 100 100
8 100 61 42 64 93 0 0 100 100 100 100 100 100 100 94 0 0 0 0 0 0 0 0 0 5 1 98 100 100 100 100 100 100 100 100 100 84 76 100 100 100 100 100 100 100 100 100 100
49 96 2 61 100 23 75 30 0 8 38 100 100 100 54 64 0 0 5 0 0 0 0 0 1 9 5 0 98 100 100 100 100 100 99 100 100 100 94 100 100 100 100 100 100 100 100 100 100
0 13 6 100 85 86 51 4 5 69 100 100 84 100 94 38 50 24 4 3 0 0 0 0 8 2 4 0 28 100 100 99 100 100 87 62 99 100 100 100 100 100 100 100 100 100 100 100 100
4 48 84 100 100 100 100 31 45 5 100 72 3 100 100 41 100 99 13 23 0 0 0 0 0 3 2 0 41 100 89 97 99 67 72 56 53 83 76 51 100 100 100 100 100 100 100 100 100
5 58 100 93 100 100 100 55 92 96 100 90 62 100 100 100 100 100 32 57 0 0 0 0 0 0 3 0 1 100 100 79 65 99 78 99 78 91 94 96 100 100 100 100 100 100 100 100 100
14 88 100 100 60 100 99 45 96 97 13 63 60 17 100 100 100 100 20 0 0 0 0 0 0 2 5 0 0 92 100 100 66 40 61 98 97 100 46 71 100 92 100 100 100 100 95 100 100
93 20 100 92 98 100 100 85 46 94 100 100 59 4 21 28 11 1 0 0 0 0 0 0 0 0 0 5 0 0 90 100 100 100 100 100 38 88 100 54 100 100 100 56 51 58 97 100 51
11 53 96 76 96 82 100 100 98 3 20 37 91 95 5 0 0 0 0 0 0 0 0 0 96 58 0 1 0 0 0 20 100 94 96 100 93 28 100 100 95 71 99 98 95 6 28 91 51
0 3 4 0 0 0 34 99 4 76 5 5 100 100 100 92 1 2 2 0 0 0 0 0 87 75 0 0 4 0 0 0 32 66 20 100 100 100 100 100 100 100 100 93 80 100 100 100 52
0 0 0 0 0 0 0 0 0 0 49 2 28 91 4 4 46 100 100 90 0 0 0 0 43 24 4 100 0 0 0 0 2 67 62 95 76 100 100 100 64 78 66 98 12 46 88 100 96
0 0 0 0 0 0 0 0 0 34 67 2 0 1 13 7 100 100 100 100 100 0 0 0 99 4 18 82 0 4 0 4 5 94 93 59 97 79 100 100 100 100 100 100 100 100 99 67 69
0 0 0 0 2 4 82 64 51 46 100 100 1 0 59 1 100 100 100 100 100 0 0 0 100 44 100 33 1 4 79 83 37 98 100 100 100 100 100 100 100 100 100 100 100 100 98 72 100
0 0 9 2 0 4 0 20 100 31 10 98 48 15 0 82 10 100 100 100 66 96 0 0 54 100 100 100 100 100 100 100 100 100 100 100 100 100 100 100 100 100 100 100 100 100 100 100 100
0 88 3 0 46 81 0 5 50 87 94 100 100 100 94 100 11 2 86 58 0 0 0 0 15 46 74 100 94 100 88 100 100 100 100 100 100 100 100 100 100 100 100 100 100 99 100 100 47
0 4 2 5 1 1 0 2 0 75 100 100 100 100 100 99 2 0 0 0 0 0 0 48 2 6 58 13 100 95 100 100 100 100 100 90 100 98 98 100 100 66 100 100 98 100 100 98 56
0 0 5 5 5 2 4 3 0 100 100 100 100 100 100 100 27 0 0 0 0 3 0 98 36 5 2 5 30 94 100 100 100 96 85 49 95 68 100 71 44 100 100 100 97 82 15 99 84

GFSSGP_prec_cloud_060.txt.gz
Cloud_Cover
88 47 99 100 88 63 0 0 0 0 0 0 0 0 0 2 0 0 0 0 0 0 0 0 0 1 5 5 4 0 0 3 5 0 0 0 86 74 100 100 100 100 100 99 100 100 100 100 100
32 65 96 99 59 17 0 0 0 0 0 0 0 0 0 0 0 0 0 0 0 0 0 0 0 0 0 0 2 0 0 3 0 0 2 34 60 35 100 100 100 100 100 100 100 100 100 100 100
80 70 100 84 48 4 0 0 0 0 0 0 0 0 0 0 0 0 0 0 0 0 0 0 0 0 0 0 0 4 4 0 0 0 5 100 81 100 87 100 100 100 100 100 100 100 100 100 100
80 6 44 8 8 2 0 0 0 0 0 0 0 0 2 0 0 0 0 0 0 0 0 0 0 0 0 0 2 4 1 0 0 0 1 100 92 100 100 100 100 100 100 95 97 96 95 14 80
11 80 92 58 73 3 0 0 0 0 0 0 0 0 0 1 0 0 0 0 0 14 0 0 0 0 0 0 6 27 5 5 0 0 0 100 100 100 100 100 100 100 93 72 45 15 43 94 100
46 49 8 14 5 0 0 0 0 0 0 0 0 0 0 0 12 0 0 0 0 10 8 0 0 0 0 0 93 5 5 4 0 1 0 100 100 100 100 96 100 95 83 47 5 8 11 19 18
5 32 73 28 3 4 0 0 17 0 0 0 0 0 7 5 6 0 64 0 0 5 8 0 0 0 0 9 37 4 3 5 0 5 1 43 66 70 100 100 88 97 7 5 6 10 5 29 83
92 88 7 74 100 78 14 15 64 4 0 3 3 0 2 58 84 16 1 2 15 0 0 6 0 0 0 1 5 5 4 5 0 0 2 19 81 47 66 100 99 100 28 11 5 32 40 13 6
5 59 98 100 95 85 95 25 5 100 100 84 3 0 3 4 5 4 80 53 36 0 2 2 2 0 1 4 2 5 5 5 0 2 3 3 50 60 4 79 10 88 64 98 71 73 89 97 22
4 27 99 82 78 28 94 98 94 98 70 83 8 5 1 0 5 13 8 0 0 0 0 0 1 4 0 5 7 13 5 48 42 84 7 86 2 2 0 97 92 5 5 76 100 100 100 100 100
1 4 4 22 88 8 72 100 81 100 100 100 8 5 5 0 0 100 4 0 0 0 0 0 0 0 0 1 17 74 90 89 100 100 95 0 0 1 4 61 100 37 51 97 100 100 100 94 100
13 3 2 90 1 1 1 17 20 68 100 100 8 5 7 99 97 42 0 0 0 0 0 0 1 0 0 13 21 76 100 100 100 100 100 99 14 5 0 5 5 96 100 100 100 100 100 100 100
11 28 68 100 5 0 0 0 99 100 99 98 4 17 30 77 74 0 0 1 0 0 0 0 5 4 4 5 10 85 100 79 99 83 100 100 100 43 5 4 97 81 68 83 98 100 100 100 92
0 73 50 53 94 5 2 2 80 94 70 87 74 70 5 91 58 26 0 0 0 3 0 0 2 2 24 81 61 99 100 100 100 97 100 100 100 92 60 15 19 98 88 50 100 92 61 100 100
6 3 5 5 29 98 13 56 1 5 15 91 92 99 45 68 100 96 6 0 0 4 0 0 0 0 99 100 100 98 100 100 100 100 100 100 100 100 11 100 65 100 100 87 51 97 99 100 100
35 1 58 13 46 53 14 4 1 0 18 93 60 100 100 100 100 100 2 0 0 1 0 0 0 0 19 100 100 100 100 100 100 100 100 100 100 100 97 37 64 95 100 100 100 100 100 100 100
4 5 5 44 19 95 93 12 11 5 65 84 12 80 100 100 100 46 2 0 5 0 0 0 0 0 1 22 100 100 100 100 100 93 100 81 85 100 100 100 100 100 100 100 100 100 100 100 100
0 4 5 1 91 80 45 39 82 100 100 99 4 100 100 100 100 99 2 10 1 0 0 0 0 2 0 6 100 100 100 100 100 100 61 51 84 88 100 100 100 100 100 100 100 100 100 100 100
0 0 0 31 87 100 100 100 100 89 82 78 6 100 99 100 100 94 5 0 0 0 0 0 5 0 8 11 34 100 100 100 100 100 98 30 95 78 5 98 100 100 100 100 100 100 100 100 100
0 0 0 6 52 97 99 90 100 15 100 5 71 90 100 69 52 12 2 0 0 0 0 0 2 0 0 4 0 91 100 100 100 100 59 48 70 89 91 98 100 100 100 100 98 100 100 100 100
0 0 0 3 98 100 89 32 73 6 1 57 100 100 100 88 2 91 1 1 1 0 0 0 0 0 5 48 3 4 100 100 100 98 50 77 90 88 76 81 31 90 95 98 70 100 100 100 46
0 0 0 3 98 100 40 8 2 1 2 20 67 4 87 100 48 34 94 100 41 1 0 0 11 100 97 98 3 0 16 100 100 100 94 75 100 94 99 55 97 90 78 100 100 100 100 85 5
2 0 0 31 6 94 96 66 84 2 0 0 0 1 63 95 95 20 100 100 13 80 0 3 76 52 100 81 24 17 0 15 96 96 100 67 95 83 64 65 54 100 98 98 100 99 100 53 5
0 0 0 12 2 0 3 0 0 0 0 0 45 0 0 69 100 54 100 93 5 4 4 97 100 98 100 55 100 79 4 0 16 83 100 100 100 94 43 58 13 34 76 85 48 57 98 55 10
0 0 0 0 0 0 0 0 0 0 0 0 0 1 1 0 0 1 98 12 91 12 9 100 100 50 100 100 100 46 2 2 25 66 95 100 100 94 5 25 100 100 100 100 100 100 100 97 97
5 0 0 0 0 0 0 0 0 65 30 0 19 48 63 1 0 100 55 50 66 99 99 100 88 8 77 100 100 100 100 100 100 100 100 100 21 53 64 60 57 100 100 100 100 100 100 100 98
0 0 4 0 0 0 0 0 5 98 33 0 5 1 93 100 100 16 10 2 1 33 100 100 68 55 93 100 100 100 97 100 89 92 100 100 100 70 39 84 100 100 100 100 99 90 100 100 100
0 0 3 3 0 0 0 0 1 94 90 46 74 100 100 100 100 100 100 100 0 31 85 40 95 69 100 100 100 100 99 100 100 99 98 100 100 100 100 100 100 100 100 100 100 100 100 100 100
2 0 4 0 0 4 2 1 0 70 100 100 100 100 100 100 100 100 100 100 100 100 26 100 89 100 95 100 44 77 100 97 100 100 100 100 100 100 100 100 100 100 100 97 100 100 100 100 100
0 0 4 0 0 5 1 0 0 9 100 100 100 100 100 100 100 100 100 100 84 100 70 100 92 5 48 59 8 12 60 100 100 100 100 100 100 100 100 100 100 100 100 87 91 98 59 99 100

GFSSGP_prec_cloud_063.txt.gz
Cloud_Cover
21 35 88 96 100 99 3 0 0 0 0 0 3 92 28 5 1 0 0 0 0 0 0 0 0 2 5 5 5 5 5 5 5 5 5 5 79 100 100 99 94 98 100 100 74 100 89 100 100
100 99 84 95 74 21 0 0 0 0 0 0 0 0 0 0 0 31 10 1 0 2 0 0 0 0 4 5 4 0 1 3 0 5 5 15 100 100 65 74 100 99 100 100 98 99 64 100 100
28 76 82 61 3 5 0 0 0 0 0 0 0 0 0 0 9 5 0 0 0 7 4 0 0 0 2 5 5 5 5 2 2 5 4 100 64 100 100 80 96 100 100 100 100 100 97 99 79
69 71 32 3 8 2 2 0 0 0 2 0 0 0 0 0 8 5 0 3 0 20 0 0 0 0 0 0 4 5 5 5 0 5 5 100 100 100 100 100 97 100 100 100 100 89 100 100 72
36 5 1 5 0 4 0 0 0 0 0 2 0 1 0 0 0 4 27 57 4 16 2 0 0 0 0 0 0 5 5 2 0 4 20 98 100 100 100 100 100 100 100 100 100 99 100 96 100
11 5 1 5 1 0 0 0 0 0 51 60 78 57 1 1 33 0 21 10 1 46 12 0 0 0 0 0 3 5 5 3 2 0 6 100 100 97 100 100 100 100 100 100 100 100 88 99 100
66 5 4 5 1 0 0 0 0 0 7 10 37 10 1 0 0 2 9 14 2 32 24 14 0 0 2 0 14 5 5 2 1 3 2 100 100 100 100 100 100 97 99 60 60 54 20 61 55
89 5 5 4 3 3 0 2 2 12 3 5 79 4 0 0 0 0 0 29 39 24 17 23 4 0 5 5 5 5 9 2 5 5 5 100 45 96 100 100 94 8 8 63 51 41 88 99 100
12 60 40 0 12 4 58 40 76 4 33 97 66 55 2 0 0 0 28 71 18 18 26 31 14 1 4 64 7 5 5 100 38 34 5 80 72 17 100 71 99 80 51 36 14 27 39 68 97
4 4 0 2 2 1 86 68 5 4 51 100 100 46 5 0 0 0 3 0 2 7 19 25 24 19 12 22 22 51 94 100 100 81 4 28 21 6 10 97 77 26 6 65 34 93 100 100 100
1 9 4 0 0 0 0 0 74 31 30 9 8 6 56 1 0 1 4 0 0 0 0 0 4 6 13 2 24 80 100 100 100 100 82 5 7 8 80 15 5 16 7 82 100 100 100 100 100
4 10 82 13 2 0 0 0 4 3 7 7 87 100 54 5 1 5 2 0 0 0 0 1 3 0 4 17 36 100 66 64 99 100 100 28 30 10 68 84 100 28 15 71 100 100 100 100 100
5 5 5 5 2 0 0 0 0 67 52 25 3 4 44 16 18 15 5 3 0 0 0 0 4 0 1 6 61 100 100 100 100 100 100 100 90 7 5 96 96 100 100 100 100 100 100 100 100
64 5 24 4 0 0 0 0 1 2 5 92 5 0 2 9 92 5 70 13 5 3 0 0 0 0 2 5 58 100 100 100 100 100 100 100 100 98 10 16 96 100 100 100 100 100 100 100 100
73 5 3 2 4 3 0 0 0 3 0 0 5 0 2 0 5 61 61 22 7 55 1 0 0 0 2 5 5 77 100 100 100 100 100 100 100 100 100 44 100 100 66 100 54 63 63 71 100
1 1 0 5 5 3 0 0 0 0 0 2 4 5 5 4 13 0 0 97 69 78 0 0 0 0 5 25 82 99 100 100 100 100 99 100 100 100 93 100 100 100 100 96 90 73 86 93 92
5 4 15 9 5 5 4 4 0 2 87 92 98 6 1 3 2 59 20 97 100 6 0 0 0 2 8 100 100 100 100 100 100 100 87 100 100 99 100 100 66 96 56 42 47 91 100 95 42
93 5 2 5 5 4 4 36 1 16 100 100 95 10 3 10 12 100 92 96 100 1 0 0 0 0 10 81 100 100 100 100 94 100 100 100 100 100 100 100 100 99 100 90 97 91 100 96 88
84 65 2 0 0 0 2 88 5 84 100 40 9 5 5 0 5 7 68 32 5 3 0 0 0 4 30 55 29 100 100 100 65 100 100 100 100 100 100 98 96 100 91 67 72 100 100 100 100
23 20 0 0 0 5 14 94 75 36 87 50 10 20 5 79 26 0 0 0 69 31 0 0 0 41 12 64 13 18 100 100 90 91 100 100 96 67 52 98 100 100 100 97 52 99 78 99 100
5 3 0 1 0 5 70 100 100 61 19 5 93 95 5 5 3 3 5 31 7 68 3 30 88 100 100 5 50 11 100 100 97 72 93 100 100 88 64 54 96 100 100 100 100 96 100 100 100
7 0 0 0 0 2 1 87 100 100 15 66 31 100 20 0 2 4 4 4 6 57 5 100 100 100 100 83 56 1 4 100 100 100 100 97 100 74 100 53 72 86 100 100 100 100 100 100 100
0 0 0 0 0 0 0 48 100 24 5 1 0 0 0 5 0 2 1 5 4 48 66 16 100 100 95 17 10 5 0 38 100 79 80 94 86 98 89 98 35 98 100 100 100 100 100 100 100
0 0 0 0 0 0 0 0 0 0 0 0 0 0 0 5 4 26 5 50 100 100 100 100 100 100 94 79 65 13 0 0 8 98 100 57 95 100 78 100 100 100 100 100 100 100 100 100 100
0 0 0 1 0 0 0 0 0 0 0 0 0 1 2 63 98 100 100 100 100 100 100 100 100 100 68 97 67 8 5 5 12 63 84 90 100 90 46 55 100 100 100 91 100 100 100 100 100
0 0 0 0 0 0 0 0 0 0 2 0 0 0 1 13 46 100 100 100 100 100 100 100 100 100 100 30 23 15 46 20 4 5 98 100 99 100 45 100 100 100 100 98 98 98 100 100 100
0 0 0 0 0 0 0 0 0 11 23 0 0 0 29 25 100 100 100 100 100 100 100 100 99 100 100 68 25 8 58 36 6 26 52 100 100 97 50 34 71 100 100 100 100 100 99 99 93
0 0 0 0 0 0 0 0 1 17 1 0 0 44 91 100 100 100 100 100 100 100 100 100 93 99 67 12 3 5 5 5 5 28 76 98 97 40 24 57 70 94 82 100 100 100 100 100 100
0 0 0 0 0 0 0 0 0 0 0 1 88 100 100 98 100 100 100 100 100 100 100 100 100 49 23 10 5 9 5 5 8 75 93 98 93 93 100 99 81 77 95 100 100 100 100 100 99
0 0 0 0 0 0 0 1 0 2 5 100 100 100 96 100 100 100 100 100 100 100 100 100 100 30 98 96 64 19 5 34 25 97 100 100 96 100 100 93 80 100 100 100 100 100 97 100 94

GFSSGP_prec_cloud_069.txt.gz
Cloud_Cover
0 57 16 26 7 0 0 0 4 0 0 0 0 14 0 0 0 0 10 0 0 0 22 14 0 0 0 1 5 3 5 5 5 5 5 5 9 70 100 96 99 100 100 100 100 100 100 100 20
0 55 21 42 0 0 0 0 0 0 0 0 0 0 0 0 0 14 5 12 0 4 16 39 0 0 0 0 4 2 8 2 1 5 5 5 39 100 100 95 55 100 100 100 100 100 99 34 6
32 32 68 0 0 0 0 0 0 0 0 0 0 0 0 0 0 0 0 4 5 6 3 22 0 0 0 0 0 0 2 3 7 6 5 7 94 100 100 100 99 99 99 100 100 100 100 89 13
1 42 8 0 0 0 0 0 0 0 0 0 0 0 0 0 0 0 0 0 0 0 0 1 0 2 57 0 4 3 86 5 5 13 5 20 27 100 100 100 100 100 99 100 100 100 100 100 95
13 0 0 0 0 0 0 0 0 0 0 0 0 0 0 0 0 0 0 0 0 0 0 5 0 0 1 0 5 5 5 1 1 4 5 100 96 90 100 79 100 100 100 100 100 100 100 100 100
2 0 0 0 0 0 0 0 0 0 0 0 0 0 0 0 0 0 0 0 0 0 2 31 0 0 0 4 66 18 0 0 17 7 5 94 96 40 75 68 99 98 100 100 93 100 100 96 44
5 0 0 0 0 0 0 0 0 0 0 0 4 0 0 0 0 0 0 0 0 0 12 35 48 5 14 7 80 2 0 0 4 5 97 91 100 100 100 91 70 100 100 100 86 100 96 13 34
0 0 0 0 0 0 0 0 0 0 0 0 0 0 0 0 0 0 0 0 0 2 8 23 24 26 24 84 79 9 13 5 5 4 49 94 100 100 100 100 73 87 100 91 100 100 100 100 100
0 0 0 0 0 0 0 0 0 0 0 0 0 0 0 0 0 0 0 0 0 7 8 16 15 12 32 87 99 68 88 53 97 5 82 100 100 100 100 95 84 71 100 100 96 79 98 100 5
0 0 0 0 0 0 0 0 0 0 0 0 0 0 0 0 0 0 0 0 0 0 0 0 4 0 22 100 100 100 100 100 98 8 28 100 94 98 98 42 61 100 100 100 100 84 22 56 17
0 0 0 0 0 0 0 0 0 0 0 0 0 0 0 0 0 2 0 0 0 0 0 0 0 1 5 81 100 100 100 100 100 99 50 8 75 56 100 96 100 100 100 98 97 97 68 67 99
0 0 0 0 0 0 0 0 0 0 0 0 0 0 0 0 0 0 2 0 5 4 0 0 0 0 6 94 100 100 100 100 100 100 100 79 77 55 100 10 14 14 39 81 32 85 95 100 100
1 0 0 0 1 0 0 0 0 0 0 0 0 0 4 0 0 0 3 0 3 2 0 0 0 0 5 100 100 77 100 99 100 100 100 100 76 10 52 16 15 5 97 12 99 100 100 100 100
25 0 0 1 1 4 0 0 0 0 0 0 0 0 0 0 0 0 1 4 0 0 0 0 0 3 5 96 100 51 89 98 78 100 100 99 100 79 28 7 58 27 24 95 100 90 96 95 81
5 8 54 0 1 0 0 0 0 0 0 3 5 0 0 0 0 0 5 2 2 0 0 0 0 3 3 44 100 69 62 65 64 100 100 98 97 92 100 84 54 54 79 53 78 41 95 87 58
1 5 40 5 3 0 0 0 0 0 0 5 5 1 0 0 0 0 0 4 0 0 0 1 1 0 2 5 54 100 99 45 80 96 88 100 100 100 100 100 100 53 24 12 43 8 20 22 7
25 89 30 96 6 0 0 0 0 0 0 5 5 6 5 1 0 0 0 0 0 0 16 5 77 68 93 90 19 81 56 12 10 89 92 99 76 92 100 100 93 30 5 5 5 28 5 39 54
1 54 5 4 73 3 0 0 0 0 0 1 5 27 34 0 0 0 1 3 0 100 85 96 100 100 98 97 100 79 28 5 29 39 97 93 97 96 100 90 99 80 42 74 5 6 55 13 97
0 0 0 0 0 0 0 0 0 0 0 0 0 5 6 1 0 0 5 31 6 4 12 100 100 100 100 100 100 94 40 32 63 80 68 100 86 94 100 100 100 85 100 100 73 14 27 30 80
0 0 0 1 45 25 0 0 0 0 0 2 1 0 5 0 0 5 66 20 5 100 100 100 100 100 100 100 100 100 100 100 100 43 86 97 100 31 98 99 74 34 50 79 98 97 84 58 73
0 0 0 3 62 76 3 0 0 0 0 0 3 0 3 1 0 0 29 5 22 94 96 100 100 100 100 100 100 100 100 100 100 74 64 98 66 97 96 91 85 100 27 79 70 87 97 5 88
0 0 0 0 5 9 1 0 0 0 0 88 3 0 0 0 0 0 97 38 99 100 100 100 100 100 100 100 100 100 100 88 98 97 92 100 99 16 61 69 87 100 71 28 53 77 88 56 67
0 0 0 0 0 1 0 0 0 0 0 0 0 0 0 0 0 0 1 3 100 100 100 100 100 100 100 100 100 100 100 100 37 94 59 53 99 87 53 38 99 81 92 98 69 62 99 100 100
0 0 0 0 3 2 0 2 0 0 0 0 0 0 0 0 0 0 10 7 100 100 100 100 100 100 100 100 100 100 100 100 100 100 20 97 93 66 99 29 5 57 88 68 100 100 100 100 100
0 0 0 0 0 0 0 0 0 0 0 0 0 0 0 0 0 0 0 2 100 95 100 100 100 100 100 100 100 100 100 97 100 56 15 77 100 100 100 98 49 15 97 100 97 90 100 100 99
0 0 0 0 0 0 0 0 0 0 0 0 0 0 0 0 0 0 0 2 100 100 100 100 100 100 100 100 100 100 100 100 67 90 19 100 100 98 100 100 100 96 87 100 98 96 68 91 100
0 0 0 0 0 0 0 0 0 0 0 0 0 0 0 0 0 0 40 11 95 98 100 100 100 100 100 100 100 100 100 100 30 32 14 100 66 100 100 87 90 92 100 100 100 88 99 100 100
0 0 0 0 0 0 0 0 0 0 0 0 0 0 0 0 0 0 75 98 100 86 100 100 100 100 100 100 100 87 100 37 84 6 5 10 11 68 70 48 55 95 93 100 100 100 100 100 100
0 0 0 0 0 0 0 0 0 0 0 0 0 4 0 0 0 0 0 23 100 100 100 100 100 100 100 100 38 85 87 65 5 13 5 2 91 82 41 100 100 42 99 100 100 100 92 92 89
0 0 0 0 0 0 0 0 0 0 0 0 0 6 2 4 5 0 2 95 100 77 100 100 100 100 100 96 76 100 87 45 5 0 4 4 1 56 100 98 100 100 100 100 100 100 100 100 98

GFSSGP_prec_cloud_072.txt.gz
Cloud_Cover
1 50 95 60 10 0 0 0 0 0 0 1 0 10 8 0 3 34 0 6 26 54 28 0 0 0 0 0 2 8 14 7 0 3 5 5 5 6 100 5 99 100 99 100 100 100 13 100 36
40 39 31 0 1 0 0 0 0 0 0 0 0 0 0 11 0 0 0 3 35 61 80 32 0 0 2 0 5 0 0 4 7 5 5 23 37 38 100 9 80 100 100 100 100 100 98 19 13
28 59 11 0 0 0 0 0 0 0 0 0 0 0 0 0 0 0 0 0 13 36 100 47 0 0 0 2 3 3 14 51 43 5 31 70 42 94 100 28 78 86 100 100 100 100 100 77 7
12 4 0 0 0 0 0 0 0 0 0 0 0 0 0 0 0 0 0 0 0 23 52 13 0 0 0 0 30 29 72 3 5 2 5 65 100 100 100 100 56 100 100 100 100 100 100 100 72
0 0 2 0 0 0 0 0 0 0 0 0 0 0 0 0 0 0 0 0 4 13 74 12 0 0 0 15 18 82 5 4 5 5 5 22 100 99 100 100 91 100 100 100 100 100 100 100 100
0 0 15 0 0 0 0 0 0 0 0 0 0 0 0 0 0 0 0 0 0 7 28 82 0 0 5 76 82 21 26 8 4 8 98 100 100 100 100 100 100 100 100 100 100 100 100 100 100
0 2 0 0 0 0 0 0 0 0 0 0 0 0 0 0 0 0 0 0 0 0 8 99 62 6 92 5 7 5 54 70 5 86 79 95 85 100 100 100 100 96 100 100 100 100 100 97 100
0 0 2 1 2 0 0 0 0 0 0 0 0 0 0 0 0 0 0 0 0 0 1 22 96 100 86 100 99 34 16 100 15 97 100 99 100 100 98 100 99 100 100 100 100 100 100 100 13
0 1 0 3 3 0 0 0 0 0 0 0 0 0 0 0 0 0 0 0 0 0 0 1 10 96 100 100 100 100 40 5 42 42 100 100 97 100 100 100 100 100 100 100 100 100 99 27 14
0 2 0 0 0 0 0 0 0 0 0 0 0 0 0 0 0 0 0 0 0 0 0 0 5 70 100 100 100 100 100 69 6 100 98 37 100 100 98 90 96 96 99 94 100 100 100 83 97
0 0 0 0 0 0 0 0 0 0 0 0 0 0 0 0 0 0 0 0 0 0 0 0 11 100 100 100 97 100 100 100 100 81 98 100 86 100 63 41 75 88 100 100 100 100 14 65 97
0 0 0 0 0 0 0 0 0 0 0 0 0 0 0 0 0 0 3 0 0 0 0 0 3 96 100 100 93 100 100 100 100 100 100 26 100 100 59 80 62 94 100 99 100 100 82 91 58
0 0 0 0 0 0 0 0 0 0 0 0 0 0 0 0 0 0 2 0 0 0 0 0 3 45 100 100 98 100 44 74 100 100 100 100 11 91 35 26 46 84 100 100 12 88 93 100 100
0 0 0 0 0 0 0 0 0 0 0 0 0 0 0 0 0 0 0 0 0 0 0 0 0 5 100 98 82 79 91 19 92 100 100 98 41 5 15 34 10 30 67 100 58 68 99 100 84
4 1 0 0 0 0 0 0 0 0 0 0 0 0 0 0 0 0 1 0 0 0 3 4 4 5 93 100 7 94 78 46 76 100 100 100 78 11 9 7 22 27 99 8 64 63 28 31 23
0 4 17 22 0 0 0 91 0 0 0 0 0 0 0 5 0 0 3 0 1 76 100 99 68 64 5 100 97 87 80 37 90 99 85 100 70 81 51 5 18 12 43 90 26 17 18 39 45
0 0 83 21 0 0 0 2 0 0 0 0 0 0 1 5 0 0 0 0 93 100 100 100 58 33 60 100 67 76 57 76 98 98 96 100 99 100 100 38 93 100 95 100 87 97 40 74 30
2 5 3 3 25 3 0 0 0 0 0 0 0 0 0 0 0 0 4 5 100 95 100 100 100 100 100 100 100 100 95 92 22 93 100 100 99 100 100 99 83 100 100 83 24 17 62 36 50
0 0 0 0 4 2 0 0 0 0 0 0 0 0 0 0 0 25 0 1 5 12 75 100 62 100 100 100 100 100 100 100 100 100 100 100 99 100 100 100 100 100 100 100 93 87 25 41 51
0 0 0 0 0 0 0 0 0 0 0 0 0 0 1 0 0 76 3 0 6 10 46 100 80 99 100 100 100 97 100 100 100 100 100 96 100 89 71 100 100 100 100 100 100 42 80 87 37
0 0 0 0 1 0 5 0 0 0 0 0 0 0 0 0 0 2 2 0 9 42 61 95 91 16 98 99 93 81 93 100 100 100 100 100 100 100 100 85 100 100 76 72 96 96 78 96 98
0 0 0 0 0 1 10 0 5 0 0 0 0 0 0 0 0 0 0 0 3 82 100 100 100 100 73 80 63 70 2 100 100 100 100 83 100 100 100 100 68 92 100 100 100 100 98 90 87
0 0 0 0 0 0 0 1 0 0 0 2 0 0 0 0 4 0 0 2 92 52 100 100 100 100 100 87 7 5 7 98 63 34 7 8 53 99 100 100 100 98 81 100 100 100 100 98 79
0 0 0 0 0 0 0 4 0 70 2 0 0 0 1 5 0 0 0 2 59 90 100 100 100 100 100 45 20 18 100 100 100 62 7 39 94 96 95 100 100 100 99 98 100 72 87 84 100
0 0 0 0 0 0 2 0 0 15 0 0 0 0 0 1 0 0 5 8 65 100 100 100 100 100 100 36 24 26 100 100 100 92 12 21 100 41 62 76 100 100 100 98 98 100 100 100 100
0 0 3 2 0 5 0 0 0 0 0 0 0 0 5 5 0 4 2 17 17 67 100 100 100 100 100 81 2 34 100 100 100 76 5 5 78 100 100 100 99 99 100 100 100 91 100 100 100
0 5 5 2 5 5 2 0 0 0 0 0 0 0 0 0 0 0 0 5 99 76 100 100 100 100 100 98 25 100 100 100 94 34 5 5 93 99 100 100 59 18 94 100 100 100 84 91 97
0 0 2 4 0 3 0 0 0 0 0 0 0 0 0 0 0 0 0 9 4 52 96 100 100 100 100 100 100 98 84 50 36 36 5 5 7 12 100 95 86 92 56 63 98 100 100 100 100
0 0 0 1 5 5 5 9 0 0 0 0 0 0 0 0 0 0 0 0 0 3 96 100 100 100 100 100 100 95 32 5 18 79 56 67 64 82 78 84 62 28 54 64 97 81 81 100 100
0 0 0 0 0 0 0 4 0 0 0 0 0 0 0 0 0 0 0 0 0 0 100 100 100 100 100 100 100 100 95 61 5 44 71 81 86 87 18 28 87 100 64 16 33 62 98 90 100

GFSSGP_prec_cloud_075.txt.gz
Cloud_Cover
0 3 5 94 25 39 5 5 5 6 4 5 0 44 0 0 87 1 0 12 43 63 0 0 0 0 0 12 4 5 3 0 5 4 5 5 5 22 24 5 35 84 76 99 100 76 100 100 96
15 40 48 78 71 1 0 1 0 0 0 1 2 52 41 10 0 0 0 3 32 14 0 0 0 0 0 1 9 6 2 3 2 5 12 19 5 11 100 5 22 98 98 100 100 100 100 100 6
0 0 24 85 5 0 0 0 0 0 0 0 1 0 0 0 0 0 0 0 17 5 16 0 0 0 0 0 4 0 4 6 6 5 5 20 65 19 90 6 65 100 100 100 100 100 88 15 61
0 3 1 42 5 0 0 0 0 0 0 0 2 0 0 0 0 0 0 0 3 2 5 0 0 0 0 1 5 27 95 15 8 5 7 85 5 97 100 35 91 100 100 100 100 100 100 100 35
0 6 94 6 5 0 0 0 0 0 0 0 0 0 0 0 0 0 0 5 18 50 3 0 0 0 4 8 5 24 13 4 5 0 0 6 100 100 100 95 64 98 100 100 100 100 100 100 7
0 59 99 80 5 3 4 2 0 0 0 0 0 0 0 0 0 0 0 18 49 92 2 0 2 5 29 69 4 4 4 9 2 5 5 100 76 100 100 99 100 100 100 100 100 100 100 100 85
0 98 99 69 52 5 2 2 0 0 0 0 0 0 0 0 0 0 0 4 15 31 27 4 82 87 6 5 1 21 26 0 4 45 88 100 100 43 92 100 84 100 100 100 100 100 100 100 100
0 75 100 90 100 20 1 4 0 3 0 0 0 0 0 0 0 0 0 0 1 5 28 19 97 95 100 91 5 80 6 61 26 100 54 5 72 48 100 100 98 100 100 100 100 100 100 100 100
0 39 100 98 90 96 9 46 0 0 0 0 0 0 0 0 0 0 0 0 0 0 2 41 100 100 100 100 100 51 20 100 100 100 100 100 90 73 83 59 100 100 100 100 100 79 100 100 100
0 100 4 2 4 91 8 16 0 59 0 0 0 0 0 0 0 0 0 0 0 0 1 87 100 26 72 37 76 100 55 50 97 100 100 96 100 83 87 92 100 96 100 100 100 100 100 100 100
5 92 3 5 1 2 86 1 0 13 56 0 0 0 0 0 0 0 0 0 0 0 0 76 100 52 37 100 100 100 99 100 100 93 100 77 89 49 100 76 56 95 79 98 100 100 100 100 88
0 13 5 5 0 2 10 56 5 0 20 0 0 0 0 0 0 0 0 0 0 0 0 14 100 100 100 98 99 98 100 100 100 100 87 100 100 66 66 100 100 62 100 79 100 50 99 100 60
0 5 4 5 3 0 0 4 0 0 0 0 0 0 0 0 0 0 0 0 0 0 0 5 84 100 100 100 100 100 90 91 100 100 100 99 92 52 64 12 96 100 99 90 90 91 100 60 35
4 0 0 3 5 0 0 3 0 0 0 0 0 0 0 0 0 0 0 0 0 0 0 0 12 100 48 96 86 100 100 100 100 100 100 97 37 33 15 69 26 99 100 100 83 87 80 92 97
0 0 0 4 46 7 0 12 96 0 0 0 0 0 0 0 0 0 0 0 0 0 27 95 88 100 100 10 98 100 100 100 100 100 100 100 100 50 7 16 69 88 100 100 100 19 14 55 62
0 0 0 98 31 3 0 96 100 87 1 0 0 0 0 0 0 0 0 0 0 32 84 10 77 93 100 93 100 100 100 100 100 90 99 100 100 93 100 68 40 47 100 100 99 100 70 8 100
0 4 5 98 55 0 0 57 99 0 0 0 0 0 0 0 0 0 5 1 0 5 14 8 21 19 67 100 100 100 100 100 100 60 84 92 99 46 66 84 67 6 93 100 100 100 98 12 20
2 5 64 11 85 26 17 98 90 98 0 2 0 0 0 0 0 0 14 5 25 64 100 100 77 75 100 100 100 100 100 100 99 100 90 55 42 91 97 46 83 31 7 51 99 100 100 59 100
0 0 0 7 5 3 2 13 14 5 24 96 0 0 0 0 0 0 56 60 83 28 74 100 41 93 99 100 100 100 100 100 100 100 100 100 99 74 100 95 31 65 93 100 100 76 5 10 61
0 0 0 0 0 0 0 1 5 5 5 5 82 19 0 0 0 0 0 23 44 2 8 100 100 100 100 100 100 100 100 100 100 100 100 100 100 100 95 39 100 100 100 100 100 100 93 24 9
0 0 0 0 0 0 1 0 2 6 5 5 5 19 2 0 0 0 0 1 92 31 1 64 92 100 91 100 100 100 100 99 40 82 84 64 100 100 100 100 68 100 100 100 100 100 94 50 32
0 0 0 0 0 0 1 4 6 73 17 5 100 37 1 3 0 0 0 0 0 47 70 40 100 100 93 100 100 40 100 87 98 77 76 52 24 94 88 92 36 25 55 100 53 90 40 98 99
0 0 0 0 0 0 0 8 32 29 8 2 100 7 5 5 5 1 0 0 16 37 50 62 64 75 62 99 92 100 100 100 46 71 25 28 55 53 50 66 91 65 94 100 33 99 100 100 100
0 0 0 0 0 0 3 1 22 100 54 100 67 36 0 5 8 5 5 0 2 44 88 100 100 100 100 94 87 100 99 94 94 46 64 5 19 100 100 90 96 100 100 66 77 97 100 100 100
0 0 0 0 0 0 0 44 11 100 89 51 36 1 0 0 5 5 2 0 1 59 6 100 100 100 100 67 71 91 79 79 32 22 72 12 39 100 100 100 98 100 100 99 59 73 57 100 100
0 0 0 2 5 98 97 14 9 3 1 1 0 0 0 0 2 1 0 0 44 26 0 100 100 100 100 100 85 95 80 69 100 78 13 28 24 7 100 100 79 23 45 100 100 99 99 63 100
0 0 4 5 5 7 75 100 100 1 0 0 2 0 0 0 0 0 0 0 0 7 6 0 100 100 76 100 100 41 73 100 93 94 100 24 90 48 98 95 88 89 21 60 100 100 100 96 64
0 4 2 3 5 5 95 32 100 54 5 79 0 0 0 0 0 0 0 0 0 1 9 6 100 100 100 100 100 95 79 90 97 79 50 99 97 78 84 49 7 90 56 96 27 93 100 100 96
0 0 0 4 18 82 64 100 100 100 8 0 0 0 0 0 0 0 0 0 0 0 12 0 54 100 100 100 100 100 100 29 16 44 81 49 91 49 85 88 52 28 82 42 80 43 33 100 100
5 3 0 0 12 24 80 100 100 6 0 0 0 0 0 0 0 0 0 0 0 0 0 0 86 100 100 100 100 100 100 96 4 4 45 62 89 100 81 100 100 26 67 6 6 36 55 100 92